Regional Weather Roundup
Issued by NWS Bismarck, ND

Home | Current Version | Previous Version | Text Only | Print | Product List | Glossary On
Versions: 1 2 3 4 5 6 7 8 9 10 11 12 13 14 15 16 17 18 19 20 21 22 23 24 25 26 27 28 29 30 31 32 33 34 35 36 37 38 39 40 41 42 43 44 45 46 47 48 49 50
000
ASUS43 KBIS 051301
RWRBIS

NWR BROADCAST TEXT
NATIONAL WEATHER SERVICE BISMARCK ND
700 AM CST THU MAR 05 2015

NOTE: "FAIR" INDICATES FEW OR NO CLOUDS BELOW 12,000 FEET WITH NO
SIGNIFICANT WEATHER AND/OR OBSTRUCTIONS TO VISIBILITY.


CITY           SKY/WX    TMP DP  RH WIND       PRES   REMARKS
WILLISTON        N/A    N/A N/A N/A MISG      30.07F
MINOT          PTCLDY     0 -10  63 SW17      30.11F WCI -21
MINOT AFB      PTCLDY    -7 -13  78 S6        30.11F WCI -20
BISMARCK       MOCLDY    -5 -11  75 E6        30.22F WCI -18
DICKINSON      CLOUDY     8  -1  66 S14       30.04F WCI  -8
GARRISON         N/A     -7 -12  79 S5        30.14F WCI -18
HETTINGER ARPT CLEAR      2  -6  69 SW5       30.11F WCI  -8
JAMESTOWN      MOCLDY    -9 -15  75 S8        30.26F WCI -25
CARRINGTON     FAIR       0  -9  65 MISG      30.23S
CROSBY         FAIR       0  -9  65 S15       30.04S WCI -20
HAZEN          FAIR      -8 -13  77 CALM      30.16F
LINTON         FAIR      -4  -9  77 SE8       30.24S WCI -19
OAKES            N/A     -6 -13  71 S15       30.34F WCI -27
WATFORD CITY   FAIR      -2  -9  71 SW3       30.05F
$$

CITY           SKY/WX    TMP DP  RH WIND       PRES   REMARKS
GRAND FORKS    PTCLDY   -12 -18  74 S8        30.34F WCI -29
GRAND FORKS AF PTCLDY    -9 -17  68 SW6       30.32F WCI -23
DEVILS LAKE    PTCLDY    -6 -17  59 S5        30.22S WCI -17
FARGO          MOCLDY    -7 -14  71 S10       30.40S WCI -25
GWINNER        SUNNY     -6 -15  65 SW10      30.37F WCI -23
$$

CITY           SKY/WX    TMP DP  RH WIND       PRES   REMARKS
ABERDEEN       MOCLDY   -15 -21  74 S8        30.38F WCI -32
MOBRIDGE       PTCLDY    -1  -7  75 SE10      30.22F WCI -17
BUFFALO          N/A      6  -3  66 S6        30.00F WCI  -4
RAPID CITY     PTCLDY     1  -4  79 CALM      30.13F
GLASGOW        CLEAR      9   0  67 W5        30.02R WCI   1
SIDNEY         PTCLDY     7  -8  51 CALM      30.08S
WOLF POINT     CLEAR      5  -1  76 CALM      30.04S
GLENDIVE       PTCLDY    10   1  67 S13       30.04S WCI  -5
MILES CITY     CLOUDY    14   6  70 MISG      30.07S
BAKER          CLOUDY     9   4  80 CALM      30.06S
$$

CITY           SKY/WX    TMP DP  RH WIND       PRES   REMARKS
BILLINGS       CLOUDY    24   5  44 SW20      30.10R WCI  10
GREAT FALLS    PTCLDY    27  12  53 SW16      30.08R WCI  15
$$



USA.gov is the U.S. government's official web portal to all federal, state and local government web resources and services.